GW0112 Weather Reports


Display with metric or nautical units.
time (UTC)temp
F
wind
direction
speed
MPH
gust
MPH
rain 1hr
in
rain 24hr
in
rain mn
in
humidity
%
barometer
mb
20260507065542 49 0 0.0 2.0 0.00 0.00 0.00 92 1015.6
20260507065040 48 0 0.0 2.0 0.00 0.00 0.00 93 1015.6
20260507064621 48 0 0.0 2.0 0.00 0.00 0.00 93 1015.6
20260507064041 48 0 0.0 2.0 0.00 0.00 0.00 93 1015.5
20260507063541 48 0 0.0 2.0 0.00 0.00 0.00 93 1015.5
20260507063051 47 0 0.0 0.0 0.00 0.00 0.00 93 1015.5
20260507062541 47 0 0.0 0.0 0.00 0.00 0.00 93 1015.5
20260507062042 47 0 0.0 0.0 0.00 0.00 0.00 93 1015.4
20260507061545 46 0 0.0 0.0 0.00 0.00 0.00 93 1015.4
20260507061042 46 0 0.0 0.0 0.00 0.00 0.00 93 1015.5
20260507060541 45 0 0.0 0.0 0.00 0.00 0.00 93 1015.4
20260507060107 45 0 0.0 0.0 0.00 0.00 0.00 93 1015.3
20260507055543 44 0 0.0 0.0 0.00 0.00 0.00 92 1015.2
20260507055041 44 0 0.0 0.0 0.00 0.00 0.00 92 1015.3
20260507054557 43 0 0.0 0.0 0.00 0.00 0.00 92 1015.3
20260507054041 43 0 0.0 0.0 0.00 0.00 0.00 92 1015.2
20260507053541 43 0 0.0 0.0 0.00 0.00 0.00 92 1015.1
20260507053048 43 0 0.0 0.0 0.00 0.00 0.00 92 1015.2
20260507052540 42 0 0.0 0.0 0.00 0.00 0.00 92 1015.1
20260507052041 42 0 0.0 0.0 0.00 0.00 0.00 92 1015.1
20260507051603 42 0 0.0 0.0 0.00 0.00 0.00 92 1015.1
20260507051042 42 0 0.0 0.0 0.00 0.00 0.00 92 1015.0
20260507050541 42 0 0.0 0.0 0.00 0.00 0.00 92 1015.0
20260507050052 42 0 0.0 0.0 0.00 0.00 0.00 92 1015.0
20260507045540 42 0 0.0 0.0 0.00 0.00 0.00 92 1015.0
20260507045040 41 0 0.0 0.0 0.00 0.00 0.00 91 1015.1
20260507044556 41 0 0.0 0.0 0.00 0.00 0.00 91 1015.0
20260507044043 41 0 0.0 0.0 0.00 0.00 0.00 91 1015.0
20260507043541 41 0 0.0 0.0 0.00 0.00 0.00 91 1015.0
20260507043055 41 0 0.0 0.0 0.00 0.00 0.00 91 1015.0
20260507042541 41 0 0.0 0.0 0.00 0.00 0.00 91 1015.0
20260507042040 41 0 0.0 0.0 0.00 0.00 0.00 91 1015.0
20260507041543 42 0 0.0 1.0 0.00 0.00 0.00 91 1015.0
20260507041041 42 0 0.0 1.0 0.00 0.00 0.00 91 1015.1
20260507040541 42 0 0.0 0.0 0.00 0.00 0.00 91 1015.0
20260507040051 42 0 0.0 1.0 0.00 0.00 0.00 91 1015.0
20260507035540 42 0 0.0 1.0 0.00 0.00 0.00 90 1015.0
20260507035040 42 0 0.0 0.0 0.00 0.00 0.00 90 1015.0
20260507034547 42 0 0.0 0.0 0.00 0.00 0.00 91 1015.0
20260507034041 42 0 0.0 0.0 0.00 0.00 0.00 91 1015.0
20260507033541 42 0 0.0 0.0 0.00 0.00 0.00 91 1014.9
20260507033048 42 0 0.0 0.0 0.00 0.00 0.00 91 1014.9
20260507032541 42 0 0.0 0.0 0.00 0.00 0.00 91 1015.0
20260507032044 42 0 0.0 0.0 0.00 0.00 0.00 91 1015.0
20260507031547 42 0 0.0 0.0 0.00 0.00 0.00 91 1014.9
20260507031043 42 0 0.0 0.0 0.00 0.00 0.00 90 1015.0
20260507030541 42 0 0.0 0.0 0.00 0.00 0.00 90 1015.0
20260507030051 42 0 0.0 0.0 0.00 0.00 0.00 90 1014.9
20260507025540 42 0 0.0 0.0 0.00 0.00 0.00 90 1015.0
20260507025041 42 0 0.0 1.0 0.00 0.00 0.00 90 1015.0
20260507024549 42 0 0.0 1.0 0.00 0.00 0.00 90 1015.0
20260507024040 42 0 0.0 1.0 0.00 0.00 0.00 89 1014.9
20260507023540 42 0 0.0 2.0 0.00 0.00 0.00 89 1014.9
20260507023048 42 0 0.0 2.0 0.00 0.00 0.00 89 1014.8
20260507022542 42 0 0.0 2.0 0.00 0.00 0.00 89 1014.7
20260507022042 42 0 0.0 1.0 0.00 0.00 0.00 89 1014.7
20260507021548 43 0 0.0 3.0 0.00 0.00 0.00 89 1014.6
20260507021043 43 0 0.0 3.0 0.00 0.00 0.00 89 1014.7
20260507020541 43 0 0.0 3.0 0.00 0.00 0.00 89 1014.7
20260507015545 43 0 0.0 3.0 0.00 0.00 0.00 89 1014.7
20260507015044 43 314 0.0 0.0 0.00 0.00 0.00 89 1014.6
20260507014548 43 0 0.0 1.0 0.00 0.00 0.00 89 1014.5
20260507014041 43 0 0.0 1.0 0.00 0.00 0.00 89 1014.6
20260507013543 43 0 0.0 1.0 0.00 0.00 0.00 89 1014.6
20260507013047 43 0 0.0 1.0 0.00 0.00 0.00 88 1014.5
20260507012542 43 0 0.0 1.0 0.00 0.00 0.00 89 1014.6
20260507012041 43 0 0.0 1.0 0.00 0.00 0.00 88 1014.6
20260507011550 43 0 0.0 1.0 0.00 0.00 0.00 88 1014.7
20260507011040 43 0 0.0 0.0 0.00 0.00 0.00 88 1014.7
20260507010541 43 0 0.0 1.0 0.00 0.00 0.00 88 1014.7
20260507010100 43 0 0.0 2.0 0.00 0.00 0.00 88 1014.7
20260507005541 43 0 0.0 2.0 0.00 0.00 0.00 87 1014.7
20260507005041 43 0 0.0 3.0 0.00 0.00 0.00 87 1014.6
20260507004545 43 0 0.0 3.0 0.00 0.00 0.00 87 1014.6
20260507004042 43 348 0.0 2.0 0.00 0.00 0.00 87 1014.7
20260507003541 44 0 0.0 2.0 0.00 0.00 0.00 87 1014.7
20260507003052 44 0 0.0 1.0 0.00 0.00 0.00 86 1014.7
20260507002541 44 0 0.0 0.0 0.00 0.00 0.00 86 1014.9
20260507002042 44 0 0.0 0.0 0.00 0.00 0.00 86 1014.8
20260507001555 44 0 0.0 0.0 0.00 0.00 0.00 86 1014.8
20260507001041 44 0 0.0 0.0 0.00 0.00 0.00 85 1014.8
20260507000541 44 0 0.0 0.0 0.00 0.00 0.00 85 1014.9
20260507000052 44 0 0.0 0.0 0.00 0.00 0.00 85 1014.9
20260506235543 45 0 0.0 0.0 0.00 0.00 0.00 85 1014.9
20260506235041 45 0 0.0 0.0 0.00 0.00 0.00 85 1014.8
20260506234558 45 0 0.0 0.0 0.00 0.00 0.00 84 1014.7
20260506234041 45 0 0.0 2.0 0.00 0.00 0.00 84 1014.7
20260506233545 45 0 0.0 2.0 0.00 0.00 0.00 84 1014.7
20260506233052 45 0 0.0 2.0 0.00 0.00 0.00 84 1014.7
20260506232542 46 308 0.0 2.0 0.00 0.00 0.00 84 1014.6
20260506232041 46 0 0.0 2.0 0.00 0.00 0.00 83 1014.7
20260506231606 46 0 0.0 2.0 0.00 0.00 0.00 83 1014.6
20260506231041 46 0 0.0 2.0 0.00 0.00 0.00 83 1014.6
20260506230541 46 0 0.0 2.0 0.00 0.00 0.00 82 1014.6
20260506230109 47 0 0.0 3.0 0.00 0.00 0.00 82 1014.7
20260506225541 47 0 0.0 3.0 0.00 0.00 0.00 82 1014.6
20260506225041 47 328 0.0 3.0 0.00 0.00 0.00 82 1014.7
20260506224553 47 0 0.0 3.0 0.00 0.00 0.00 81 1014.6
20260506224040 47 0 0.0 3.0 0.00 0.00 0.00 81 1014.6
20260506223543 48 0 0.0 3.0 0.00 0.00 0.00 81 1014.6
20260506223054 48 12 0.0 2.0 0.00 0.00 0.00 81 1014.6
20260506222541 48 346 0.0 3.0 0.00 0.00 0.00 81 1014.7
20260506222044 48 0 0.0 4.0 0.00 0.00 0.00 80 1014.6
20260506221609 48 0 0.0 5.0 0.00 0.00 0.00 80 1014.6
20260506221040 48 360 1.0 5.0 0.00 0.00 0.00 80 1014.6
20260506220541 49 331 2.0 7.0 0.00 0.00 0.00 80 1014.5
20260506220105 49 30 2.0 7.0 0.00 0.00 0.00 79 1014.5
20260506215542 49 333 2.0 7.0 0.00 0.00 0.00 79 1014.6
20260506215041 49 9 2.0 7.0 0.00 0.00 0.00 79 1014.5
20260506214551 49 10 3.0 8.0 0.00 0.00 0.00 79 1014.5
20260506214041 49 341 3.0 8.0 0.00 0.00 0.00 79 1014.5
20260506213540 49 338 3.0 8.0 0.00 0.00 0.00 78 1014.5
20260506213105 50 0 2.0 8.0 0.00 0.00 0.00 78 1014.5
20260506212541 50 325 0.0 5.0 0.00 0.00 0.00 78 1014.5
20260506212041 50 34 1.0 6.0 0.00 0.00 0.00 77 1014.6
20260506211553 50 321 1.0 8.0 0.00 0.00 0.00 77 1014.5
20260506211041 50 11 2.0 8.0 0.00 0.00 0.00 77 1014.5
20260506210541 50 12 1.0 8.0 0.00 0.00 0.00 77 1014.4
20260506210055 50 279 2.0 8.0 0.00 0.00 0.00 76 1014.2
20260506205540 50 17 3.0 7.0 0.00 0.00 0.00 76 1014.3
20260506205042 50 355 2.0 7.0 0.00 0.00 0.00 76 1014.1
20260506204554 51 16 3.0 8.0 0.00 0.00 0.00 75 1014.1
20260506204037 51 30 4.0 8.0 0.00 0.00 0.00 75 1014.1
20260506203545 51 350 2.0 8.0 0.00 0.00 0.00 75 1014.1
20260506203045 51 355 2.0 8.0 0.00 0.00 0.00 75 1014.1
20260506202541 51 355 3.0 9.0 0.00 0.00 0.00 74 1014.1
20260506202041 51 335 3.0 9.0 0.00 0.00 0.00 74 1014.0
20260506201550 51 330 3.0 9.0 0.00 0.00 0.00 73 1014.0
20260506201039 51 5 3.0 9.0 0.00 0.00 0.00 73 1014.0
20260506200541 51 338 3.0 9.0 0.00 0.00 0.00 73 1014.0
20260506200052 51 19 4.0 9.0 0.00 0.00 0.00 72 1013.9
20260506195543 51 326 4.0 11.0 0.00 0.00 0.00 71 1013.8
20260506195041 52 344 4.0 11.0 0.00 0.00 0.00 71 1013.8
20260506194550 52 22 3.0 9.0 0.00 0.00 0.00 71 1013.7
20260506194041 52 5 2.0 10.0 0.00 0.00 0.00 70 1013.6
20260506193537 52 355 4.0 10.0 0.00 0.00 0.00 70 1013.6
20260506193051 52 329 1.0 9.0 0.00 0.00 0.00 69 1013.5
20260506192537 53 335 2.0 10.0 0.00 0.00 0.00 69 1013.5
20260506192042 53 0 4.0 10.0 0.00 0.00 0.00 68 1013.5
20260506191556 53 338 2.0 9.0 0.00 0.00 0.00 68 1013.4
20260506191043 53 332 3.0 9.0 0.00 0.00 0.00 67 1013.3
20260506190542 53 360 2.0 9.0 0.00 0.00 0.00 67 1013.3
20260506190101 53 355 3.0 7.0 0.00 0.00 0.00 66 1013.3
20260506185544 53 9 2.0 6.0 0.00 0.00 0.00 65 1013.2
20260506185043 54 355 2.0 8.0 0.00 0.00 0.00 64 1013.1
20260506184625 54 340 2.0 8.0 0.00 0.00 0.00 64 1013.0
20260506184044 54 5 3.0 10.0 0.00 0.00 0.00 64 1013.0
20260506183546 54 0 4.0 10.0 0.00 0.00 0.00 63 1013.0
20260506183104 54 347 3.0 9.0 0.00 0.00 0.00 63 1013.0
20260506182542 54 343 3.0 10.0 0.00 0.00 0.00 62 1012.9
20260506182042 55 38 3.0 10.0 0.00 0.00 0.00 62 1013.0
20260506181550 55 13 4.0 10.0 0.00 0.00 0.00 62 1012.7
20260506181044 55 9 2.0 8.0 0.00 0.00 0.00 62 1012.8
20260506180545 55 338 3.0 8.0 0.00 0.00 0.00 62 1012.7
20260506180059 55 19 3.0 8.0 0.00 0.00 0.00 62 1012.6
20260506175545 55 13 3.0 9.0 0.00 0.00 0.00 62 1012.5
20260506175047 55 336 3.0 9.0 0.00 0.00 0.00 62 1012.6
20260506174556 55 344 2.0 10.0 0.00 0.00 0.00 64 1012.6
20260506174043 55 12 4.0 10.0 0.00 0.00 0.00 63 1012.4
20260506173544 55 360 4.0 10.0 0.00 0.00 0.00 63 1012.4
20260506173052 55 340 3.0 10.0 0.00 0.00 0.00 64 1012.4
20260506172544 55 5 3.0 10.0 0.00 0.00 0.00 64 1012.3
20260506172045 55 18 4.0 13.0 0.00 0.00 0.00 64 1012.3
20260506171608 55 331 3.0 13.0 0.00 0.00 0.00 64 1012.3
20260506171044 55 351 6.0 13.0 0.00 0.00 0.00 64 1012.4
20260506170540 55 355 4.0 11.0 0.00 0.00 0.00 64 1012.3
20260506170057 55 360 3.0 9.0 0.00 0.00 0.00 64 1012.3
20260506165540 55 26 3.0 10.0 0.00 0.00 0.00 64 1012.3
20260506165044 55 306 3.0 10.0 0.00 0.00 0.00 63 1012.2
20260506164551 55 355 4.0 12.0 0.00 0.00 0.00 64 1012.3
20260506164042 55 9 5.0 12.0 0.00 0.00 0.00 63 1012.3
20260506163543 55 349 5.0 12.0 0.00 0.00 0.00 63 1012.3
20260506163106 55 334 3.0 10.0 0.00 0.00 0.00 62 1012.3
20260506162541 56 336 4.0 9.0 0.00 0.00 0.00 63 1012.4
20260506162043 56 355 3.0 8.0 0.00 0.00 0.00 63 1012.4
20260506161550 56 40 4.0 10.0 0.00 0.00 0.00 63 1012.3
20260506161042 57 329 3.0 15.0 0.00 0.00 0.00 63 1012.3
20260506160542 57 339 5.0 15.0 0.00 0.00 0.00 62 1012.3
20260506160101 58 17 3.0 13.0 0.00 0.00 0.00 62 1012.3
20260506155541 58 344 2.0 10.0 0.00 0.00 0.00 61 1012.3
20260506155041 58 340 2.0 9.0 0.00 0.00 0.00 64 1012.4
20260506154554 58 19 2.0 10.0 0.00 0.00 0.00 64 1012.3
20260506154041 57 346 5.0 10.0 0.00 0.00 0.00 62 1012.4
20260506153544 57 352 2.0 9.0 0.00 0.00 0.00 64 1012.5
20260506153051 57 21 4.0 10.0 0.00 0.00 0.00 63 1012.5
20260506152544 57 14 3.0 11.0 0.00 0.00 0.00 65 1012.6
20260506152040 57 13 5.0 11.0 0.00 0.00 0.00 62 1012.5
20260506151550 57 309 4.0 10.0 0.00 0.00 0.00 64 1012.5
20260506151040 57 262 3.0 10.0 0.00 0.00 0.00 65 1012.5
20260506150540 57 301 4.0 10.0 0.00 0.00 0.00 63 1012.7
20260506150055 57 335 3.0 13.0 0.00 0.00 0.00 63 1012.7
20260506145542 57 13 4.0 15.0 0.00 0.00 0.00 62 1012.7
20260506145044 57 30 3.0 15.0 0.00 0.00 0.00 63 1012.6
20260506144600 59 341 5.0 14.0 0.00 0.00 0.00 61 1012.8
20260506144042 59 330 5.0 12.0 0.00 0.00 0.00 63 1012.7
20260506143541 59 323 2.0 14.0 0.00 0.00 0.00 63 1012.7
20260506143050 58 311 4.0 14.0 0.00 0.00 0.00 65 1012.6
20260506142540 58 0 5.0 14.0 0.00 0.00 0.00 64 1012.6
20260506142040 59 340 6.0 12.0 0.00 0.00 0.00 65 1012.7
20260506141550 59 360 4.0 12.0 0.00 0.00 0.00 64 1012.6
20260506141042 59 33 2.0 10.0 0.00 0.00 0.00 64 1012.7
20260506140543 59 312 4.0 10.0 0.00 0.00 0.00 65 1012.7
20260506140052 57 28 5.0 15.0 0.00 0.00 0.00 66 1012.7
20260506135541 57 344 5.0 15.0 0.00 0.00 0.00 64 1012.7
20260506135040 57 309 6.0 15.0 0.00 0.00 0.00 63 1012.8
20260506134551 58 324 3.0 12.0 0.00 0.00 0.00 66 1012.7
20260506134043 58 272 5.0 13.0 0.00 0.00 0.00 63 1012.8
20260506133541 59 355 5.0 13.0 0.00 0.00 0.00 61 1012.7
20260506133053 59 316 4.0 14.0 0.00 0.00 0.00 65 1012.6
20260506132545 58 355 5.0 14.0 0.00 0.00 0.00 63 1012.8
20260506132041 59 336 3.0 16.0 0.00 0.00 0.00 66 1012.6
20260506131557 57 348 2.0 16.0 0.00 0.00 0.00 68 1012.8
20260506131041 57 346 4.0 11.0 0.00 0.00 0.00 66 1012.7
20260506130541 56 337 3.0 17.0 0.00 0.00 0.00 67 1012.7
20260506130057 55 5 4.0 17.0 0.00 0.00 0.00 65 1012.7
20260506125540 56 310 7.0 15.0 0.00 0.00 0.00 64 1012.8
20260506125040 56 346 3.0 13.0 0.00 0.00 0.00 64 1012.7
20260506124550 57 360 6.0 13.0 0.00 0.00 0.00 62 1012.8
20260506124041 59 5 5.0 14.0 0.00 0.00 0.00 62 1012.7
20260506123542 58 313 4.0 14.0 0.00 0.00 0.00 67 1012.7
20260506123052 56 26 5.0 14.0 0.00 0.00 0.00 63 1012.8
20260506122542 57 350 6.0 14.0 0.00 0.00 0.00 64 1012.7
20260506122042 57 19 6.0 14.0 0.00 0.00 0.00 65 1012.9
20260506121550 57 329 5.0 13.0 0.00 0.00 0.00 63 1012.8
20260506121043 58 336 5.0 13.0 0.00 0.00 0.00 64 1012.8
20260506120541 58 16 6.0 12.0 0.00 0.00 0.00 61 1012.8
20260506120050 58 347 5.0 12.0 0.00 0.00 0.00 64 1012.7
20260506115541 58 323 4.0 15.0 0.00 0.00 0.00 64 1012.8
20260506115041 57 355 5.0 15.0 0.00 0.00 0.00 64 1012.9
20260506114554 58 331 8.0 14.0 0.00 0.00 0.00 62 1012.8
20260506114040 58 10 3.0 14.0 0.00 0.00 0.00 65 1012.9
20260506113540 57 317 7.0 14.0 0.00 0.00 0.00 65 1012.9
20260506113049 57 327 6.0 13.0 0.00 0.00 0.00 64 1012.9
20260506112540 58 335 4.0 13.0 0.00 0.00 0.00 65 1012.9
20260506112040 57 333 4.0 13.0 0.00 0.00 0.00 65 1013.0
20260506111550 57 355 7.0 13.0 0.00 0.00 0.00 65 1012.9
20260506111043 57 317 2.0 13.0 0.00 0.00 0.00 64 1013.0
20260506110540 58 309 4.0 13.0 0.00 0.00 0.00 61 1012.9
20260506110048 57 351 6.0 14.0 0.00 0.00 0.00 63 1012.8
20260506105540 56 309 4.0 15.0 0.00 0.00 0.00 64 1012.9
20260506105042 56 291 7.0 17.0 0.00 0.00 0.00 60 1012.9
20260506104546 57 350 8.0 17.0 0.00 0.00 0.00 61 1012.9
20260506104041 57 317 5.0 16.0 0.00 0.00 0.00 63 1012.9
20260506103541 57 355 4.0 14.0 0.00 0.00 0.00 63 1012.9
20260506103052 56 30 6.0 16.0 0.00 0.00 0.00 62 1012.8
20260506102541 57 312 5.0 16.0 0.00 0.00 0.00 63 1012.9
20260506102041 57 32 7.0 16.0 0.00 0.00 0.00 61 1012.9
20260506101550 56 242 6.0 15.0 0.00 0.00 0.00 62 1012.9
20260506101040 55 348 7.0 15.0 0.00 0.00 0.00 64 1012.9
20260506100540 54 350 7.0 13.0 0.00 0.00 0.00 64 1013.0
20260506095541 55 342 3.0 13.0 0.00 0.00 0.00 65 1012.9
20260506095043 57 5 2.0 13.0 0.00 0.00 0.00 63 1012.9
20260506094549 57 344 4.0 11.0 0.00 0.00 0.00 64 1013.0
20260506094041 56 9 3.0 12.0 0.00 0.00 0.00 63 1012.9
20260506093541 55 292 5.0 14.0 0.00 0.00 0.00 63 1012.9
20260506093053 55 335 4.0 14.0 0.00 0.00 0.00 64 1012.8
20260506092541 56 307 5.0 14.0 0.00 0.00 0.00 64 1012.9
20260506092045 56 308 3.0 10.0 0.00 0.00 0.00 67 1012.8
20260506091553 55 355 4.0 11.0 0.00 0.00 0.00 66 1012.9
20260506091041 56 281 1.0 11.0 0.00 0.00 0.00 69 1012.9
20260506090540 55 289 3.0 11.0 0.00 0.00 0.00 70 1012.8
20260506090050 53 325 3.0 11.0 0.00 0.00 0.00 71 1012.8
20260506085540 52 314 2.0 10.0 0.00 0.00 0.00 71 1012.9
20260506085040 52 316 3.0 11.0 0.00 0.00 0.00 72 1012.8
20260506084557 51 0 5.0 12.0 0.00 0.00 0.00 73 1012.9
20260506084041 51 303 3.0 14.0 0.00 0.00 0.00 73 1012.9
20260506083541 51 280 4.0 14.0 0.00 0.00 0.00 74 1012.8
20260506083050 51 20 2.0 9.0 0.00 0.00 0.00 76 1012.8
20260506082542 50 342 3.0 9.0 0.00 0.00 0.00 76 1012.8
20260506082040 50 360 1.0 9.0 0.00 0.00 0.00 77 1012.9
20260506081550 50 346 3.0 9.0 0.00 0.00 0.00 77 1012.9
20260506081041 49 98 2.0 9.0 0.00 0.00 0.00 77 1012.9
20260506080541 49 286 3.0 9.0 0.00 0.00 0.00 78 1013.0
20260506073051 48 0 2.0 12.0 0.00 0.00 0.00 78 1012.8
20260506072541 49 0 1.0 10.0 0.00 0.00 0.00 79 1012.8
20260506072041 49 355 0.0 10.0 0.00 0.00 0.00 79 1012.8
20260506071556 49 346 2.0 11.0 0.00 0.00 0.00 79 1012.8
20260506071041 48 0 1.0 13.0 0.00 0.00 0.00 79 1012.8
20260506070543 48 0 3.0 13.0 0.00 0.00 0.00 79 1012.8